CYGFM07

Last updated on Fri Oct 31 2025 00:02:21 GMT+0000 (Coordinated Universal Time)

1 41890U 16078G 25303.27994433 .00026078 00000+0 48970-3 0 9991 2 41890 34.9481 305.8788 0010018 180.6006 179.4705 15.47570101493216
UTC large
Height (km)
Speed (km/s)
/
Latitude / Longitude
Inclination (degrees)
Orbital Period (minutes)
Azimuth
Elevation
Range (km)
Doppler Factor

Next 0 passes for location: London (51.5072 / 0.1276)

Sorry there are no passes over London.